"Pseudo-MPEC" for p0004M

Created 2025 May 13 21:31:05 UT using Find_Orb

Click here for an explanation of pseudo-MPECs

 
 Astrometry: 
     p0004M * C2025 04 23.53263115 18 05.622+07 46 49.65   ~4NM2 22.14wXNEOCPF51
     p0004M   C2025 04 23.54404015 18 05.700+07 46 50.82   ~4NM2 22.03wXNEOCPF51
     p0004M   C2025 04 23.55544315 18 05.764+07 46 51.13   ~4NM2 22.05wXNEOCPF51
     p0004M   C2025 04 23.56680715 18 05.810+07 46 51.13   ~4NM2 21.94wXNEOCPF51

Station data:
(F51) Pan-STARRS 1, Haleakala  (N20.707234 W156.255910)  US/Hawaii.
   Observers J. Bulger, T. Lowe, A. Schultz, M. Willman. Measurers K.
   Chambers, S. Chastel, T. de Boer, L. Denneau, J. Fairlamb, H. Flewelling,
   M. Huber, C.-C. Lin, E. Magnier, Y. Ramanjooloo, R. Wainscoat, R. Weryk.
   1.8-m Ritchey-Chrétien + CCD.

Orbital elements:  p0004M
   Perihelion 2025 Jul 1.40084 +/- 46.4 TT =  9:37:12 (JD 2460857.90084)
Epoch 2025 Apr 24.0 TT = JDT 2460789.5   Earth MOID: 0.0612      AutoNEOCP
M 338.17060138 +/- 20               (J2000 ecliptic)
n   0.31913934 +/- 0.241            Peri.  211.08356 +/- 100
a   2.12071583 +/- 1.07             Node    70.98451 +/- 45
e   0.5083523 +/- 0.214             Incl.   10.65126 +/- 3.6
P   3.08833                H 22.70  G  0.15   U 11.8  SR
q 1.04264494 +/- 0.295    Q 3.19878672 +/- 4.02
From 4 observations 2025 Apr. 23 (49.2 min); mean residual 0".23
Residuals in arcseconds: 
250423 F51  .12-  .31-    250423 F51  .15+  .19+    
250423 F51  .14+  .36+    250423 F51  .15-  .26-    

Ephemerides (geocentric):
Date (UTC) HH   RA             Dec           delta  r     elong  mag " sig PA
---- --------  ------------   ------------  ------ ------ -----  --- --------
2025 05 13 22  15 19 31.076   +04 51 24.15  .19042 1.1877 156.6 20.5  58d  85
2025 05 13 23  15 19 30.984   +04 50 24.50  .19016 1.1875 156.6 20.5  58d  85
2025 05 14 00  15 19 30.892   +04 49 24.61  .18991 1.1872 156.6 20.5  58d  85
2025 05 14 01  15 19 30.800   +04 48 24.47  .18966 1.1870 156.6 20.5  58d  85
2025 05 14 02  15 19 30.709   +04 47 24.09  .18940 1.1868 156.6 20.5  58d  85
2025 05 14 03  15 19 30.617   +04 46 23.47  .18915 1.1866 156.6 20.4  58d  85
2025 05 14 04  15 19 30.525   +04 45 22.61  .18890 1.1864 156.6 20.4  58d  85
2025 05 14 05  15 19 30.433   +04 44 21.50  .18865 1.1861 156.6 20.4  58d  85
2025 05 14 06  15 19 30.340   +04 43 20.14  .18839 1.1859 156.6 20.4  58d  85
2025 05 14 07  15 19 30.248   +04 42 18.54  .18814 1.1857 156.7 20.4  58d  85
2025 05 14 08  15 19 30.156   +04 41 16.69  .18789 1.1855 156.7 20.4  58d  85
2025 05 14 09  15 19 30.064   +04 40 14.60  .18764 1.1852 156.7 20.4  58d  85
2025 05 14 10  15 19 29.971   +04 39 12.25  .18738 1.1850 156.7 20.4  58d  85
2025 05 14 11  15 19 29.879   +04 38 09.66  .18713 1.1848 156.7 20.4  59d  85
2025 05 14 12  15 19 29.787   +04 37 06.81  .18688 1.1846 156.7 20.4  59d  85
2025 05 14 13  15 19 29.695   +04 36 03.71  .18663 1.1843 156.7 20.4  59d  85
2025 05 14 14  15 19 29.602   +04 35 00.36  .18638 1.1841 156.7 20.4  59d  85
2025 05 14 15  15 19 29.510   +04 33 56.76  .18612 1.1839 156.7 20.4  59d  85
2025 05 14 16  15 19 29.418   +04 32 52.90  .18587 1.1837 156.7 20.4  59d  85
2025 05 14 17  15 19 29.326   +04 31 48.79  .18562 1.1835 156.7 20.4  59d  85
2025 05 14 18  15 19 29.234   +04 30 44.43  .18537 1.1832 156.7 20.4  59d  85
2025 05 14 19  15 19 29.141   +04 29 39.80  .18512 1.1830 156.7 20.4  59d  85
2025 05 14 20  15 19 29.049   +04 28 34.92  .18487 1.1828 156.7 20.4  59d  85
2025 05 14 21  15 19 28.957   +04 27 29.79  .18462 1.1826 156.7 20.4  59d  85
2025 05 14 22  15 19 28.866   +04 26 24.39  .18437 1.1824 156.7 20.4  59d  85
2025 05 14 23  15 19 28.774   +04 25 18.73  .18412 1.1821 156.7 20.4  59d  85
2025 05 15 00  15 19 28.682   +04 24 12.82  .18387 1.1819 156.7 20.4  59d  85
2025 05 15 01  15 19 28.590   +04 23 06.64  .18362 1.1817 156.7 20.4  59d  85
2025 05 15 02  15 19 28.499   +04 22 00.20  .18337 1.1815 156.7 20.4  59d  85
2025 05 15 03  15 19 28.407   +04 20 53.50  .18312 1.1813 156.8 20.4  59d  85
2025 05 15 04  15 19 28.316   +04 19 46.53  .18287 1.1810 156.8 20.4  59d  85
2025 05 15 05  15 19 28.225   +04 18 39.30  .18262 1.1808 156.8 20.4  59d  85
2025 05 15 06  15 19 28.134   +04 17 31.80  .18237 1.1806 156.8 20.4  59d  85
2025 05 15 07  15 19 28.043   +04 16 24.03  .18212 1.1804 156.8 20.4  59d  85
2025 05 15 08  15 19 27.952   +04 15 16.00  .18187 1.1802 156.8 20.4  59d  85
2025 05 15 09  15 19 27.862   +04 14 07.70  .18162 1.1799 156.8 20.3  59d  85
2025 05 15 10  15 19 27.772   +04 12 59.13  .18137 1.1797 156.8 20.3  59d  85
2025 05 15 11  15 19 27.681   +04 11 50.29  .18112 1.1795 156.8 20.3  59d  85
2025 05 15 12  15 19 27.591   +04 10 41.18  .18087 1.1793 156.8 20.3  59d  85
2025 05 15 13  15 19 27.502   +04 09 31.80  .18063 1.1791 156.8 20.3  59d  85
2025 05 15 14  15 19 27.412   +04 08 22.14  .18038 1.1788 156.8 20.3  59d  85
2025 05 15 15  15 19 27.323   +04 07 12.21  .18013 1.1786 156.8 20.3  59d  85
2025 05 15 16  15 19 27.234   +04 06 02.01  .17988 1.1784 156.8 20.3  59d  85
2025 05 15 17  15 19 27.145   +04 04 51.53  .17963 1.1782 156.8 20.3  59d  85
2025 05 15 18  15 19 27.056   +04 03 40.77  .17939 1.1780 156.8 20.3  59d  85
2025 05 15 19  15 19 26.968   +04 02 29.74  .17914 1.1777 156.8 20.3  59d  85
2025 05 15 20  15 19 26.879   +04 01 18.43  .17889 1.1775 156.8 20.3  59d  85
2025 05 15 21  15 19 26.792   +04 00 06.84  .17864 1.1773 156.9 20.3  59d  85